This is the latest recevied weather packets stored in our database for station/object SR4DIG-13. If no packets are shown the sender has not sent any weather packets the latest 10 day(s).
| Time | Temp. | Humidity | Pressure | Rain* | Wind** | Luminosity | Snow |
|---|---|---|---|---|---|---|---|
| 1777903093 | 26.67° C | 24% | 1010.3 hPa | 0 mm | - | - | - |
| 1777902132 | 27.78° C | 23% | 1010.3 hPa | 0 mm | - | - | - |
| 1777901831 | 27.78° C | 23% | 1010.3 hPa | 0 mm | - | - | - |
| 1777900939 | 27.78° C | 24% | 1010.4 hPa | 0 mm | - | - | - |
| 1777900037 | 28.89° C | 23% | 1010.4 hPa | 0 mm | - | - | - |
| 1777899736 | 28.89° C | 23% | 1010.5 hPa | 0 mm | - | - | - |
| 1777899435 | 28.33° C | 23% | 1010.5 hPa | 0 mm | - | - | - |
| 1777898833 | 27.78° C | 23% | 1010.6 hPa | 0 mm | - | - | - |
| 1777898232 | 27.78° C | 23% | 1010.7 hPa | 0 mm | - | - | - |
| 1777897931 | 27.78° C | 24% | 1010.7 hPa | 0 mm | - | - | - |
| 1777897629 | 27.78° C | 24% | 1010.7 hPa | 0 mm | - | - | - |
| 1777896727 | 27.22° C | 24% | 1010.7 hPa | 0 mm | - | - | - |
| 1777896084 | 27.78° C | 24% | 1011 hPa | 0 mm | - | - | - |
| 1777895182 | 27.78° C | 24% | 1011 hPa | 0 mm | - | - | - |
| 1777894881 | 27.78° C | 24% | 1011 hPa | 0 mm | - | - | - |
| 1777894580 | 27.78° C | 24% | 1011.1 hPa | 0 mm | - | - | - |
| 1777894279 | 27.78° C | 24% | 1011.1 hPa | 0 mm | - | - | - |
| 1777893946 | 27.78° C | 25% | 1011 hPa | 0 mm | - | - | - |
| 1777893645 | 27.78° C | 25% | 1011 hPa | 0 mm | - | - | - |
| 1777893344 | 27.78° C | 24% | 1011.1 hPa | 0 mm | - | - | - |
| 1777893043 | 28.33° C | 23% | 1011.3 hPa | 0 mm | - | - | - |
| 1777891801 | 27.78° C | 24% | 1011.5 hPa | 0 mm | - | - | - |
| 1777891500 | 27.78° C | 24% | 1011.5 hPa | 0 mm | - | - | - |
| 1777889884 | 26.67° C | 24% | 1011.7 hPa | 0 mm | - | - | - |
| 1777889582 | 26.67° C | 24% | 1011.8 hPa | 0 mm | - | - | - |
* Rain since midnight (hover to see other rain measurements)
** Current wind speed in m/s (hover to see current wind gust speed)